Regional Weather Roundup
Issued by NWS

Home | Current Version | Previous Version | Text Only | Print | Product List | Glossary On
Versions: 1 2 3 4 5 6 7 8 9 10 11 12 13 14 15 16 17 18 19 20 21 22 23 24 25 26 27
000
ASPQ40 PGUM 161712
RWRPQ
WEATHER ROUNDUP FOR THE MARIANAS AND MICRONESIA
NATIONAL WEATHER SERVICE TIYAN GU
300 AM CHST SUN DEC 17 2017

GUZ001>004-161800-
MARIANA ISLANDS-

CITY           SKY/WX    TMP DP  RH WIND       PRES   REMARKS
GUAM AIRPORT   PTCLDY    81  81 100 E9        29.80F HX  91
ANDERSEN AFB   MOCLDY    81  77  89 E14       29.81F
ROTA AIRPORT   NOT AVBL
TINIAN AP      NOT AVBL
SAIPAN AP      MOCLDY    81  75  83 E16       29.81F

$$

PMZ161-161800-
REPUBLIC OF PALAU-

CITY           SKY/WX    TMP DP  RH WIND       PRES   REMARKS
KOROR AP       LGT RAIN  75  73  94 CALM      29.78F
KOROR WSO      LGT RAIN  77  75  94 NE9       29.79F

$$

PMZ171>174-161800-
FEDERATED STATES OF MICRONESIA-

CITY           SKY/WX    TMP DP  RH WIND       PRES   REMARKS
YAP AIRPORT    LGT RAIN  77  75  94 VRB3      29.79F
CHUUK AP       CLOUDY    82  79  89 VRB6      29.71F HX  93
POHNPEI AP     MOCLDY    82  77  83 MISG      29.73F HX  91
POHNPEI WSO    CLOUDY    79  77  94 E5        29.76F
KOSRAE AP      NOT AVBL

$$

PMZ181-161800-
REPUBLIC OF THE MARSHALL ISLANDS-

CITY           SKY/WX    TMP DP  RH WIND       PRES   REMARKS
KWAJALEIN AP   CLEAR     82  73  74 E20       29.76S
MAJURO AP      NOT AVBL
MAJURO WSO     MOCLDY    82  73  74 E12       29.73S

$$





USA.gov is the U.S. government's official web portal to all federal, state and local government web resources and services.